Concordia, KS

11:45 PM CDT on April 22, 2018 (GMT -0500)
Blosser Municipal

Weather History for KCNK - June, 2013

Change the Weather History Date:

Friday, June 28, 2013

  Actual Average Record
Temperature  
Mean Temperature 78 °F 77 °F  
Max Temperature 91 °F 89 °F 104 °F (1990)
Min Temperature 65 °F 66 °F 52 °F (1985)
Degree Days  
Heating Degree Days 0 0  
Month to date heating degree days 15 11  
Since 1 June heating degree days 15 11  
Since 1 July heating degree days 5514 5406  
Cooling Degree Days 13 12  
Month to date cooling degree days 281 241  
Year to date cooling degree days 384 330  
Since 1 June cooling degree days 281 241  
Growing Degree Days 28 (Base 50)    
Moisture  
Dew Point 58 °F    
Average Humidity 59    
Maximum Humidity 93    
Minimum Humidity 24    
Precipitation  
Precipitation 0.00 in 0.14 in 1.51 in (1922)
Month to date precipitation 1.28 3.78  
Year to date precipitation 12.67 13.77  
Snow  
Snow 0.00 in 0.00 in T in (1949)
Month to date snowfall 0.0 0.0  
Year to date snowfall 20.3 13.7  
Since 1 July snowfall 28.8 20.2  
Snow Depth 0.00 in    
Sea Level Pressure  
Sea Level Pressure 29.97 in    
Wind  
Wind Speed 10 mph (NNW)    
Max Wind Speed 22 mph    
Max Gust Speed 30 mph    
Visibility 10 miles    
Events      
T = Trace of Precipitation, MM = Missing Value Source: NWS Daily Summary

Daily Weather History Graph

Daily Weather History Graph

Search for Another Location

Airport or City:

Astronomy

Jun. 28, 2013 Rise Set
Actual Time 6:05 AM CDT 9:02 PM CDT
Civil Twilight 5:33 AM CDT 9:34 PM CDT
Nautical Twilight 4:52 AM CDT 10:15 PM CDT
Astronomical Twilight 4:04 AM CDT 11:02 PM CDT
Moon 12:01 AM CDT (6/28) 12:13 PM CDT (6/28)
Length of Visible Light 16h 01m
Length of Day
14h 56m
Waning Gibbous, 66% of the Moon is Illuminated
Jun 28
Waning Gibbous
Jun 29
Last Quarter
Jul 8
New
Jul 15
First Quarter
Jul 22
Full

Hourly Weather History & Observations

Time (CDT) Temp. Heat Index Dew Point Humidity Pressure Visibility Wind Dir Wind Speed Gust Speed Precip Events Conditions
12:55 AM 68.0 °F - 64.9 °F 90% 29.97 in 10.0 mi WNW 5.8 mph - N/A   Clear
1:55 AM 66.9 °F - 64.0 °F 90% 29.96 in 10.0 mi West 5.8 mph - N/A   Clear
2:55 AM 66.9 °F - 63.0 °F 87% 29.96 in 10.0 mi WSW 4.6 mph - N/A   Clear
3:55 AM 64.9 °F - 63.0 °F 93% 29.97 in 10.0 mi West 6.9 mph - N/A   Clear
4:55 AM 66.0 °F - 63.0 °F 90% 29.97 in 10.0 mi West 6.9 mph - N/A   Clear
5:55 AM 64.9 °F - 62.1 °F 90% 30.00 in 10.0 mi WNW 6.9 mph - N/A   Clear
6:55 AM 66.0 °F - 63.0 °F 90% 30.01 in 10.0 mi West 5.8 mph - N/A   Clear
7:55 AM 72.0 °F - 66.0 °F 81% 30.01 in 10.0 mi WNW 8.1 mph - N/A   Clear
8:55 AM 79.0 °F - 68.0 °F 69% 30.01 in 10.0 mi NW 10.4 mph - N/A   Clear
9:55 AM 82.0 °F 83.8 °F 64.9 °F 56% 30.01 in 10.0 mi North 10.4 mph - N/A   Clear
10:55 AM 84.9 °F 83.9 °F 57.0 °F 38% 30.01 in 10.0 mi North 18.4 mph 25.3 mph N/A   Clear
11:55 AM 88.0 °F 85.9 °F 54.0 °F 31% 30.01 in 10.0 mi North 13.8 mph 21.9 mph N/A   Clear
12:55 PM 89.1 °F 86.7 °F 53.1 °F 29% 30.00 in 10.0 mi North 15.0 mph 25.3 mph N/A   Clear
1:55 PM 89.1 °F 86.7 °F 53.1 °F 29% 29.98 in 10.0 mi NNW 17.3 mph 26.5 mph N/A   Clear
2:55 PM 90.0 °F 87.9 °F 55.0 °F 30% 29.96 in 10.0 mi NNW 15.0 mph 23.0 mph N/A   Clear
3:55 PM 90.0 °F 87.5 °F 53.1 °F 28% 29.94 in 10.0 mi NNW 18.4 mph 26.5 mph N/A   Clear
4:55 PM 90.0 °F - 48.9 °F 24% 29.94 in 10.0 mi North 17.3 mph 24.2 mph N/A   Clear
5:55 PM 89.1 °F - 51.1 °F 27% 29.94 in 10.0 mi North 16.1 mph 21.9 mph N/A   Clear
6:55 PM 87.1 °F - 50.0 °F 28% 29.93 in 10.0 mi NNW 13.8 mph - N/A   Clear
7:55 PM 84.9 °F - 51.1 °F 31% 29.92 in 10.0 mi North 8.1 mph - N/A   Clear
8:55 PM 80.1 °F - 52.0 °F 38% 29.92 in 10.0 mi North 8.1 mph - N/A   Clear
9:55 PM 75.0 °F - 52.0 °F 44% 29.93 in 10.0 mi North 4.6 mph - N/A   Clear
10:55 PM 73.9 °F - 53.1 °F 48% 29.94 in 10.0 mi Calm Calm - N/A   Clear
11:55 PM 71.1 °F - 54.0 °F 55% 29.93 in 10.0 mi North 5.8 mph - N/A   Clear